sat.trackr.live / text

‹ back to catalog

STARLINK-3180

NORAD 51137 · 2022-005AK

PAYLOAD ACTIVE UNKNOWN

§ Identity

Operator
Country
US
Launch date
2022-01-19
Launch site
AFETR
Launch vehicle
Mass (kg)
RCS (m²)

Purposes: comms

External: N2YO · Heavens-Above · Gunter

§ Orbital elements

Epoch: 2026-09-20T03:44:51.284832Z

Period
93.85 min
Inclination
53.1586°
Eccentricity
0.0001258
Mean motion
15.34377644 rev/d
Perigee alt
461.9 km
Apogee alt
463.6 km
Semi-major
6,840.9 km
B*
-2.9377e-5
RAAN
131.0005°
Arg perigee
89.0517°
Mean anomaly
271.0630°
Rev number
25,830

§ Raw data

STARLINK-31801 51137U 22005AK  26263.15614913 -.00001368  00000+0 -29377-4 0  99962 51137  53.1586 131.0005 0001258  89.0517 271.0630 15.34377644258304

JSON: /api/v1/satellites/51137 · /tle

For live sub-satellite position, see the globe view (requires WebGL).

§ Visibility from observer

Set your observer location to see the next 7 days of passes ≥ 10°. The values pass through the URL so the page stays shareable.

No JS? Fill the form by hand. The geolocation button needs JavaScript.